EN

Hourly Weather Abiego

Today, 2 December, Wednesday

Time Temperature Precipitation Wind Pressure Humidity
00:00 +6°C° 0 mm 2 mps 705 mmHg 74%
01:00 +5°C° 0 mm 2 mps 705 mmHg 73%
02:00 +4°C° 0 mm 2 mps 704 mmHg 72%
03:00 +3°C° 0 mm 2 mps 704 mmHg 72%
04:00 +2°C° 0 mm 3 mps 704 mmHg 67%
05:00 +1°C° 0 mm 3 mps 704 mmHg 63%
06:00 0°C° 0 mm 3 mps 704 mmHg 59%
07:00 +1°C° 0 mm 3 mps 704 mmHg 55%
08:00 +2°C° 0 mm 3 mps 704 mmHg 51%
09:00 +3°C° 0 mm 3 mps 704 mmHg 47%
10:00 +4°C° 0 mm 4 mps 705 mmHg 42%
11:00 +6°C° 0 mm 4 mps 705 mmHg 37%
12:00 +8°C° 0 mm 4 mps 705 mmHg 32%
13:00 +8°C° 0 mm 4 mps 705 mmHg 33%
14:00 +9°C° 0 mm 3 mps 705 mmHg 34%
15:00 +9°C° 0 mm 3 mps 704 mmHg 36%
16:00 +7°C° 0 mm 3 mps 704 mmHg 42%
17:00 +4°C° 0 mm 3 mps 704 mmHg 48%
18:00 +2°C° 0 mm 3 mps 704 mmHg 54%
19:00 +2°C° 0 mm 3 mps 705 mmHg 56%
20:00 +1°C° 0 mm 3 mps 705 mmHg 58%
21:00 +2°C° 0 mm 2 mps 705 mmHg 60%
22:00 +2°C° 0 mm 2 mps 705 mmHg 60%
23:00 +1°C° 0 mm 2 mps 705 mmHg 61%

Tomorrow, 3 December, Thursday

Time Temperature Precipitation Wind Pressure Humidity
00:00 +1°C° 0 mm 2 mps 704 mmHg 61%
01:00 +2°C° 0 mm 1 mps 704 mmHg 61%
02:00 +2°C° 0 mm 1 mps 704 mmHg 61%
03:00 +1°C° 0 mm 1 mps 703 mmHg 61%
04:00 +1°C° 0 mm 1 mps 703 mmHg 62%
05:00 +1°C° 0 mm 1 mps 702 mmHg 62%
06:00 0°C° 0 mm 0 mps 702 mmHg 62%
07:00 +1°C° 0 mm 0 mps 702 mmHg 59%
08:00 +2°C° 0 mm 0 mps 701 mmHg 56%
09:00 +3°C° 0 mm 0 mps 701 mmHg 53%
10:00 +5°C° 0 mm 1 mps 700 mmHg 51%
11:00 +6°C° 0 mm 1 mps 700 mmHg 49%
12:00 +6°C° 0 mm 2 mps 699 mmHg 47%
13:00 +7°C° 0 mm 1 mps 698 mmHg 50%
14:00 +7°C° 0 mm 1 mps 697 mmHg 52%
15:00 +7°C° 0 mm 1 mps 696 mmHg 54%
16:00 +6°C° 0 mm 1 mps 696 mmHg 58%
17:00 +5°C° 0 mm 1 mps 695 mmHg 62%
18:00 +4°C° 0 mm 1 mps 695 mmHg 66%
19:00 +4°C° 0 mm 1 mps 694 mmHg 66%
20:00 +4°C° 0 mm 1 mps 694 mmHg 66%
21:00 +4°C° 0 mm 1 mps 693 mmHg 66%
22:00 +4°C° 0.2 mm 1 mps 692 mmHg 72%
23:00 +3°C° 0.2 mm 1 mps 691 mmHg 77%

Day after tomorrow, 4 December, Friday

Time Temperature Precipitation Wind Pressure Humidity
00:00 +3°C° 0.2 mm 1 mps 690 mmHg 82%
01:00 +3°C° 0.2 mm 1 mps 690 mmHg 83%
02:00 +3°C° 0.2 mm 1 mps 689 mmHg 85%
03:00 +3°C° 0.2 mm 1 mps 688 mmHg 86%
04:00 +2°C° 0.5 mm 2 mps 688 mmHg 87%
05:00 +2°C° 0.5 mm 2 mps 688 mmHg 88%
06:00 +2°C° 0.5 mm 3 mps 688 mmHg 89%
07:00 +2°C° 0.1 mm 3 mps 688 mmHg 83%
08:00 +2°C° 0.1 mm 3 mps 688 mmHg 77%
09:00 +3°C° 0.1 mm 4 mps 688 mmHg 70%
10:00 +4°C° 0 mm 4 mps 688 mmHg 64%
11:00 +3°C° 0 mm 5 mps 688 mmHg 58%
12:00 +4°C° 0 mm 6 mps 688 mmHg 52%
13:00 +5°C° 0 mm 5 mps 688 mmHg 52%
14:00 +5°C° 0 mm 5 mps 687 mmHg 53%
15:00 +3°C° 0 mm 5 mps 687 mmHg 54%
16:00 +3°C° 0 mm 4 mps 687 mmHg 59%
17:00 +2°C° 0 mm 3 mps 688 mmHg 64%
18:00 +1°C° 0 mm 2 mps 688 mmHg 69%
19:00 +1°C° 0 mm 2 mps 688 mmHg 73%
20:00 +1°C° 0 mm 2 mps 688 mmHg 77%
21:00 -1°C° 0 mm 2 mps 688 mmHg 80%
22:00 -1°C° 0 mm 3 mps 688 mmHg 81%
23:00 -1°C° 0 mm 3 mps 689 mmHg 81%

5 December, Saturday

Time Temperature Precipitation Wind Pressure Humidity
00:00 -2°C° 0 mm 3 mps 689 mmHg 82%
01:00 -2°C° 0 mm 3 mps 689 mmHg 82%
02:00 -2°C° 0 mm 2 mps 689 mmHg 82%
03:00 -2°C° 0 mm 2 mps 689 mmHg 82%
04:00 -2°C° 0 mm 2 mps 689 mmHg 81%
05:00 -2°C° 0 mm 2 mps 689 mmHg 81%
06:00 -2°C° 0 mm 2 mps 689 mmHg 80%
07:00 -1°C° 0 mm 3 mps 690 mmHg 76%
08:00 -1°C° 0 mm 3 mps 690 mmHg 72%
09:00 0°C° 0 mm 3 mps 691 mmHg 68%
10:00 0°C° 0 mm 4 mps 691 mmHg 65%
11:00 +2°C° 0 mm 5 mps 691 mmHg 62%
12:00 +3°C° 0 mm 6 mps 692 mmHg 59%
13:00 +3°C° 0 mm 6 mps 692 mmHg 60%
14:00 +3°C° 0 mm 6 mps 692 mmHg 60%
15:00 +3°C° 0 mm 6 mps 692 mmHg 60%
16:00 +2°C° 0 mm 5 mps 692 mmHg 66%
17:00 0°C° 0 mm 4 mps 693 mmHg 73%
18:00 0°C° 0 mm 3 mps 693 mmHg 79%
19:00 -1°C° 0 mm 2 mps 693 mmHg 79%
20:00 -1°C° 0 mm 2 mps 693 mmHg 80%
21:00 +1°C° 0 mm 1 mps 693 mmHg 81%
22:00 -1°C° 0.1 mm 2 mps 693 mmHg 82%
23:00 -1°C° 0.1 mm 2 mps 693 mmHg 83%

6 December, Sunday

Time Temperature Precipitation Wind Pressure Humidity
00:00 -1°C° 0.1 mm 2 mps 693 mmHg 84%
01:00 -1°C° 0 mm 2 mps 693 mmHg 85%
02:00 -1°C° 0 mm 2 mps 693 mmHg 86%
03:00 -2°C° 0 mm 2 mps 693 mmHg 87%
04:00 -2°C° 0 mm 2 mps 693 mmHg 87%
05:00 -2°C° 0 mm 2 mps 693 mmHg 86%
06:00 0°C° 0 mm 1 mps 693 mmHg 86%
07:00 +1°C° 0 mm 1 mps 693 mmHg 82%
08:00 +2°C° 0 mm 1 mps 693 mmHg 79%
09:00 +2°C° 0 mm 1 mps 693 mmHg 75%
10:00 +2°C° 0.1 mm 3 mps 694 mmHg 71%
11:00 +3°C° 0.1 mm 4 mps 694 mmHg 67%
12:00 +3°C° 0.1 mm 5 mps 694 mmHg 62%
13:00 +3°C° 0.1 mm 5 mps 694 mmHg 64%
14:00 +3°C° 0.1 mm 5 mps 694 mmHg 65%
15:00 +3°C° 0.1 mm 5 mps 694 mmHg 66%
16:00 +3°C° 0 mm 4 mps 695 mmHg 71%
17:00 +1°C° 0 mm 4 mps 695 mmHg 77%
18:00 0°C° 0 mm 3 mps 695 mmHg 82%
19:00 0°C° 0 mm 3 mps 696 mmHg 83%
20:00 +1°C° 0 mm 2 mps 696 mmHg 83%
21:00 -1°C° 0 mm 2 mps 697 mmHg 84%
22:00 -1°C° 0.1 mm 2 mps 697 mmHg 85%
23:00 -1°C° 0.1 mm 2 mps 697 mmHg 86%

7 December, Monday

Time Temperature Precipitation Wind Pressure Humidity
00:00 -1°C° 0.1 mm 2 mps 697 mmHg 87%
01:00 -1°C° 0.1 mm 2 mps 697 mmHg 87%
02:00 -1°C° 0.1 mm 2 mps 697 mmHg 87%
03:00 -1°C° 0.1 mm 2 mps 697 mmHg 87%
04:00 -1°C° 0 mm 2 mps 698 mmHg 86%
05:00 -1°C° 0 mm 2 mps 698 mmHg 86%
06:00 -1°C° 0 mm 2 mps 698 mmHg 86%
07:00 0°C° 0 mm 3 mps 699 mmHg 82%
08:00 +1°C° 0 mm 3 mps 700 mmHg 79%
09:00 +2°C° 0 mm 3 mps 700 mmHg 75%
10:00 +3°C° 0 mm 3 mps 701 mmHg 71%
11:00 +4°C° 0 mm 3 mps 701 mmHg 66%
12:00 +7°C° 0 mm 3 mps 701 mmHg 61%
13:00 +7°C° 0 mm 3 mps 701 mmHg 62%
14:00 +7°C° 0 mm 3 mps 701 mmHg 62%
15:00 +5°C° 0 mm 3 mps 701 mmHg 63%
16:00 +5°C° 0 mm 2 mps 701 mmHg 68%
17:00 +4°C° 0 mm 2 mps 701 mmHg 74%
18:00 +3°C° 0 mm 1 mps 701 mmHg 79%
19:00 +3°C° 0 mm 1 mps 700 mmHg 80%
20:00 +3°C° 0 mm 1 mps 700 mmHg 80%
21:00 +2°C° 0 mm 1 mps 700 mmHg 81%
22:00 +2°C° 0.2 mm 1 mps 699 mmHg 81%
23:00 +3°C° 0.2 mm 1 mps 699 mmHg 82%
Show more